Location: Poughquag
(41.6090°N, 73.6820°W)
Time: 19:58:51
(UTC-04:00)

CUBESAT XI-V - Pass Details

Date: 15 April 2024
Orbit: 657 x 680 km, 98.2° (Epoch: 23 May)

Event Time Altitude Azimuth Distance (km) Brightness Sun altitude
Exits shadow 02:00:57 21° 40° (NE) 1,532 ? -36.2°
Drops below altitude 10° 02:03:15 10° 14° (NNE) 2,127 ? -36.1°
Sets 02:05:50 0° 0° (N) 3,043 ? -35.9°
